Location: Sternwarte Stuttgart
(48.7670°N, 9.1830°E)
Time: 05:25:56
(UTC+01:00)

Cosmos 371 Rocket - Pass Details

Date: 24 January 2019
Orbit: 683 x 700 km, 74.0° (Epoch: 16 February)

Event Time Altitude Azimuth Distance (km) Brightness Sun altitude
Exits shadow 06:44:45 10° 327° (NNW) 2,194 5.4 -12.8°
Reaches altitude 10° 06:44:49 10° 327° (NNW) 2,174 5.4 -12.8°
Maximum altitude 06:49:30 47° 254° (WSW) 925 3.6 -12.1°
Drops below altitude 10° 06:54:09 10° 181° (S) 2,153 6.0 -11.4°
Sets 06:56:30 0° 176° (S) 3,064 6.9 -11.0°
